This is the latest recevied weather packets stored in our database for station/object IZ1UQG-1. If no packets are shown the sender has not sent any weather packets the latest 10 day(s).
| Time | Temp. | Humidity | Pressure | Rain* | Wind** | Luminosity | Snow |
|---|---|---|---|---|---|---|---|
| 1777654743 | 22.22° C | 40% | 1022.3 hPa | 174.5 mm | - | - | - |
| 1777654443 | 22.78° C | 40% | 1022.4 hPa | 214.88 mm | - | - | - |
| 1777654143 | 22.78° C | 40% | 1022.5 hPa | 213.36 mm | - | - | - |
| 1777653843 | 22.78° C | 40% | 1022.3 hPa | 218.95 mm | - | - | - |
| 1777653543 | 22.78° C | 40% | 1022.4 hPa | 201.93 mm | - | - | - |
| 1777653243 | 22.78° C | 40% | 1022.5 hPa | 213.36 mm | - | - | - |
| 1777652943 | 22.22° C | 40% | 1022.4 hPa | 203.96 mm | - | - | - |
| 1777652643 | 22.22° C | 40% | 1022.5 hPa | 218.44 mm | - | - | - |
| 1777652343 | 22.22° C | 40% | 1022.5 hPa | 207.52 mm | - | - | - |
| 1777652043 | 22.22° C | 40% | 1022.5 hPa | 198.88 mm | - | - | - |
| 1777651743 | 22.22° C | 40% | 1022.5 hPa | 198.37 mm | - | - | - |
| 1777651443 | 22.22° C | 40% | 1022.6 hPa | 186.94 mm | - | - | - |
| 1777651143 | 22.22° C | 39% | 1022.6 hPa | 173.99 mm | - | - | - |
| 1777650843 | 22.22° C | 39% | 1022.6 hPa | 189.99 mm | - | - | - |
| 1777650543 | 22.22° C | 39% | 1022.5 hPa | 176.53 mm | - | - | - |
| 1777650243 | 22.22° C | 39% | 1022.7 hPa | 177.04 mm | - | - | - |
| 1777649943 | 22.22° C | 39% | 1022.9 hPa | 184.15 mm | - | - | - |
| 1777649643 | 22.22° C | 39% | 1022.8 hPa | 179.58 mm | - | - | - |
| 1777649343 | 22.78° C | 39% | 1022.8 hPa | 160.02 mm | - | - | - |
| 1777649043 | 22.78° C | 39% | 1022.8 hPa | 150.62 mm | - | - | - |
| 1777648743 | 22.78° C | 39% | 1022.8 hPa | 149.1 mm | - | - | - |
| 1777648443 | 22.78° C | 39% | 1022.9 hPa | 169.67 mm | - | - | - |
| 1777648143 | 22.78° C | 39% | 1022.9 hPa | 156.72 mm | - | - | - |
| 1777647843 | 22.78° C | 40% | 1023 hPa | 138.68 mm | - | - | - |
| 1777647543 | 22.78° C | 39% | 1023.1 hPa | 127.76 mm | - | - | - |
* Rain latest hour (hover to see other rain measurements)
** Current wind speed in m/s (hover to see current wind gust speed)